Location: Unspecified
(36.9193°S, 174.7252°E)
Time: 10:10:21
(UTC+13:00)

Envisat - Pass Details

Date: 21 September 2021
Orbit: 764 x 766 km, 98.2° (Epoch: 16 October)

Event Time Altitude Azimuth Distance (km) Brightness Sun altitude
Rises 05:26:50 0° 349° (N) 3,219 6.1 -10.0°
Reaches altitude 10° 05:29:21 10° 339° (NNW) 2,302 5.2 -9.5°
Maximum altitude 05:33:52 32° 277° (W) 1,307 3.7 -8.6°
Drops below altitude 10° 05:38:26 10° 214° (SSW) 2,330 5.2 -7.7°
Sets 05:41:00 0° 203° (SSW) 3,265 6.1 -7.1°
